Terug naar catalogus

COSMOS 1481 DEB

LostHEO
NORAD 48344·DEBRIS·🇷🇺 Russia

Gelanceerd Jul 8, 1983 vanaf Plesetsk Cosmodrome

Loading…

Volgende Passages (komende 24 uur)

TLE

VerouderdSource: Space-Track

Epoch: Jun 5, 2022, 08:18 UTC

1 48344U 83070L   22156.34627722 -.00000074  00000-0  00000+0 0  9991
2 48344  69.6699 309.7752 5794733 305.8339  13.0699  2.10391033 52874

Volg COSMOS 1481 DEB in realtime met AllMySat

Download on the App Store